Regional Weather Roundup
Issued by NWS

Home | Current Version | Previous Version | Text Only | Print | Product List | Glossary Off
Versions: 1 2 3 4 5 6 7 8 9 10 11 12 13 14 15 16 17 18 19 20 21 22 23 24 25 26 27 28 29 30 31 32 33 34 35 36 37 38 39 40 41 42 43 44 45 46 47 48 49 50

423
ASUS43 KBIS 220710
RWRND

NORTH DAKOTA REGIONAL WEATHER ROUNDUP
NATIONAL WEATHER SERVICE BISMARCK ND
200 AM CDT FRI MAY 22 2015

NOTE: "FAIR" INDICATES FEW OR NO CLOUDS BELOW 12,000 FEET WITH NO
SIGNIFICANT WEATHER AND/OR OBSTRUCTIONS TO VISIBILITY.


NDZ001>003-009>011-017-220800-
NORTHWEST NORTH DAKOTA

CITY           SKY/WX    TMP DP  RH WIND       PRES   REMARKS
WILLISTON      PTCLDY    55  35  47 CALM      30.12S
MINOT          CLEAR     52  36  54 SE3       30.13S
MINOT AFB      CLEAR     44  42  93 S5        30.12S
$$

NDZ018>021-031>035-040>046-220800-
SOUTHWEST NORTH DAKOTA

CITY           SKY/WX    TMP DP  RH WIND       PRES   REMARKS
BISMARCK       CLEAR     49  42  77 NE8       30.14F
DICKINSON      CLEAR     44  33  65 S7        30.12S
GARRISON         N/A     51  40  65 E5        30.14S
HETTINGER ARPT CLEAR     42  32  67 CALM      30.14F
$$

NDZ004>008-012>016-024-026-027-054-220800-
NORTHEAST NORTH DAKOTA

CITY           SKY/WX    TMP DP  RH WIND       PRES   REMARKS
GRAND FORKS    CLEAR     41  37  86 W3        30.13S
GRND FRKS AFB  CLEAR     42  40  93 SW1       30.14R
DEVILS LAKE    CLEAR     48  37  66 CALM      30.14S
$$

NDZ022-023-025-028>030-036>039-047>053-220800-
SOUTHEAST NORTH DAKOTA

CITY           SKY/WX    TMP DP  RH WIND       PRES   REMARKS
FARGO          CLEAR     49  39  68 CALM      30.14R
JAMESTOWN      CLEAR     51  41  68 S3        30.15R
$$




USA.gov is the U.S. government's official web portal to all federal, state and local government web resources and services.